SL-12 R/B(AUX MOTOR), 21226

Orbit data source: Space-Track

SL-12 R/B(AUX MOTOR), 21226 is space debris originally from a launch on Thu, 04 Apr 1991 UTC launched from the Tyuratam Missile And Space Complex (TTMTR). Debris objects in space refer to the collection of defunct objects orbiting the Earth. Examples of debris include non-operational satellites, rocket bodies, and fragments generated from explosions, collisions, or faulty payload assembly.

Loading next visibility...
Identifier
21226, 1991-025G
Orbit
Active
Country
Flag of CISCIS
Related business
Manufacturer
NPO Energiya
Mission
Spacecraft
Bus & Motor
SOZ, Unknown motor
Mass
Wet unknown, ~60 kg dry
Launch date (UTC)
1991-04-04 (35 years ago)
Launch vehicle
Unknown
Launch site
Tyuratam Missile And Space Complex (TTMTR)
Object type
Payload
Rocket body
Debris
Shape & HBR
Cyl, 0.6 m
Radar Cross Section
0.660 m², Medium (>0.1 m² and < 1m²)

Expand to show TLE details & history
Last TLE update: 2 days ago

TLE from 2 days ago
0 SL-12 R/B(AUX MOTOR)
1 21226U 91025G   26171.19954977  .00026596  00000-0  21253-2 0  9991
2 21226  64.5369  42.9271 4417671  32.4421 348.3850  6.66927876664081
Epoch: 2026-06-20T04:47Z
TLE epoch observation values (Epoch: 2026-06-20T04:47:21.100Z)
Latitude
0.00003°
Longitude
62.6716°
Altitude
609.724 km
Speed
8.982 km/s
True Right ascension
02h 51m 42s
True Declination
0° 00' 00"
Sunlit
Object was in daylight at epoch
Visualization orbit readout
Latitude
Unknown
Longitude
Unknown
Altitude
Unknown
Speed
Unknown
Apparent Right ascension
Unknown
Apparent Declination
Unknown
Sunlit
N/A
Visualization observer readout
Local Sidereal Time
03:41:48
Azimuth
Unknown
Elevation
Unknown
Doppler factor
Unknown
Orbital elements
Apogee altitude
10,808.984 km
Perigee altitude
276.486 km
Semi-major axis
11,920.872 km
Eccentricity
0.44177
Inclination
64.5369°
RAAN
42.9271°
Arg. of periapsis
32.4421°
True anomaly
327.64554°
Mean anomaly
348.385°
Eccentric anomaly
339.53542°
Mean motion
1.66756 °/min
Orbital period
215.88 mins
BSTAR
0.0021253
Loading maneuver chart data...
Computing Atmospheric mass density...
Loading historical data...
Loading historical data...
Loading historical data...
Loading historical data...
Loading historical data...
Loading historical data...
Loading historical data...

Documentation

Showing up to 5 results
|